Regional Weather Roundup
Issued by NWS

Home | Current Version | Previous Version | Text Only | Print | Product List | Glossary Off
Versions: 1 2 3 4 5 6 7 8 9 10 11 12 13 14 15 16 17 18 19 20 21 22 23 24 25 26 27

000
ASUS45 KSLC 250810
RWRUT

UTAH REGIONAL WEATHER ROUNDUP
NATIONAL WEATHER SERVICE SALT LAKE CITY UT
200 AM MDT MON JUL 25 2016

UTZ001>011-023>025-250900-

NORTHERN UTAH

CITY           SKY/WX    TMP DP  RH WIND       PRES   REMARKS
BRIGHAM CITY     N/A     64  40  40 CALM      30.06R
HILL AFB       CLEAR     71  31  22 E17       30.07F
LOGAN          CLEAR     58  42  55 W6        30.09S
OGDEN          CLEAR     70  30  22 S6        30.04F
PROVO AIRPORT  CLEAR     64  39  39 CALM      30.08R
SALT LAKE CITY CLEAR     74  41  30 S5        30.03S
VERNAL         CLEAR     66  33  29 NW7       30.13S
WENDOVER       CLEAR     77  27  15 NE13      30.05R
HEBER CITY     PTCLDY    52  41  66 CALM      30.18S

$$

UTZ012>022-026-027-250900-

SOUTHERN/CENTRAL UTAH

CITY           SKY/WX    TMP DP  RH WIND       PRES   REMARKS
BLANDING       MOCLDY    70  43  38 N9        30.27S
BRYCE CANYON   CLEAR     55  41  59 CALM      30.36F
CEDAR CITY     CLEAR     71  44  37 CALM      30.16S
DELTA          CLEAR     73  30  20 S8        30.06R
MILFORD        CLEAR     72  41  32 S7        30.10S
MOAB/CYNLANDS  PTCLDY    79  36  21 CALM      30.04R
PRICE          CLEAR     64  22  20 N6        30.17R
ST GEORGE      MOSUNNY   90  45  20 E14       29.96R
KANAB          CLEAR     66  46  48 CALM      30.18

$$

REGIONAL REPORTS     COLORADO/ARIZONA

CITY           SKY/WX    TMP DP  RH WIND       PRES   REMARKS
CRAIG, CO      CLOUDY    50  40  68 SW3       30.24R
GRAND JUNCTION CLOUDY    79  41  25 E16       30.09R
RIFLE          CLEAR     63  40  42 E7        30.19R
MONTROSE       CLEAR     68  40  35 E8        30.20R
CORTEZ         CLOUDY    70  46  42 CALM      30.23R
PAGE, AZ       PTCLDY    79  45  29 S5        30.08R
GRAND CANYON   CLEAR     55  50  83 CALM      30.29S
KINGMAN          N/A     83  53  35 SE8       30.02R
FLAGSTAFF      PTCLDY    59  46  62 CALM      30.33S

$$

REGIONAL REPORTS    NEVADA/IDAHO/WYOMING

CITY           SKY/WX    TMP DP  RH WIND       PRES   REMARKS
LAS VEGAS, NV  PTCLDY    97  28   8 S8        29.82R HX  91
ELY            CLEAR     64  21  19 VRB5      30.18R
ELKO           CLEAR     56  31  38 W3        30.10S
POCATELLO, ID  CLEAR     54  32  43 E6        30.09S
BURLEY         CLEAR     57  42  57 SE3       30.06R
EVANSTON, WY   CLOUDY    63  22  20 S8        30.30S
ROCK SPRINGS   CLOUDY    63  12  13 SW7       30.26S
KEMMERER         N/A     52  28  40 N13       30.30F

$$




USA.gov is the U.S. government's official web portal to all federal, state and local government web resources and services.